Date String (YYYY-MM-DD hh:mm:ss) UTC,Instrument flags,absolute air pressure of the measurement (hPa),sample flow rate (lpm),inlet stack bypass flow (lpm),air temperature of the measurement (°C),ambient temperature measured by the external sensor (°C),aerosol sample conditioner tube jacket temperature (°C),OPC LED temperature (°C),internal box temperature (°C),relative humidity of the measurement (%),span deviation,mass concentration of particles derived from Lorenz-Mie calculation of OPC scattering (μg/m³),mass concentration of particles derived from Lorenz-Mie calculation of OPC scattering (μg/m³),mass concentration of particles derived from Lorenz-Mie calculation of OPC scattering (μg/m³)
DateTimeUTC,F1_M11,P_M11,Q1_M11,Q2_M11,T1_M11,T2_M11,T3_M11,T4_M11,T5_M11,U1_M11,ZSPAN_M11,X0_M11,X2_M11,X1_M11
2023-06-20 08:00:00,SystemResetWarning,0825.9,4.99,000.00,030.0,028.6,000.0,038.4,031.6,13.4,0000.0,0009.84,0003.70,0002.99
2023-06-20 08:01:00,SystemResetWarning,0825.9,4.98,000.00,030.0,027.7,000.0,038.4,031.6,13.5,0000.0,0008.69,0003.74,0003.01
2023-06-20 08:02:00,SystemResetWarning,0825.8,5.00,000.00,030.0,025.4,000.0,038.4,031.5,14.1,0000.0,0009.13,0003.77,0003.06
2023-06-20 08:03:00,SystemResetWarning,0825.8,5.01,000.00,030.0,025.0,000.0,038.3,031.4,15.7,0000.0,0009.53,0003.82,0003.09
2023-06-20 08:04:00,SystemResetWarning,0825.8,5.02,000.00,029.8,025.3,000.0,038.3,031.1,15.4,0000.0,0010.20,0003.85,0003.13
2023-06-20 08:05:00,SystemResetWarning,0825.9,4.99,000.00,029.8,025.7,000.0,038.3,031.0,14.7,0000.0,0010.44,0003.88,0003.17
2023-06-20 08:06:00,SystemResetWarning,0825.8,4.99,000.00,029.7,026.2,000.0,038.3,031.0,13.5,0000.0,0010.02,0003.95,0003.21
2023-06-20 08:07:00,SystemResetWarning,0825.8,5.00,000.00,029.7,026.5,000.0,038.3,031.0,13.8,0000.0,0010.62,0003.99,0003.22
2023-06-20 08:08:00,SystemResetWarning,0825.8,5.01,000.00,029.7,026.9,000.0,038.3,031.1,14.4,0000.0,0010.90,0004.03,0003.22
2023-06-20 08:09:00,SystemResetWarning,0825.8,5.01,000.00,029.7,027.2,000.0,038.3,031.1,16.5,0000.0,0011.12,0004.02,0003.22
2023-06-20 08:10:00,SystemResetWarning,0825.9,5.00,000.00,029.7,027.4,000.0,038.3,031.2,16.5,0000.0,0011.34,0004.00,0003.19
2023-06-20 08:11:00,SystemResetWarning,0825.9,5.00,000.00,029.7,027.6,000.0,038.3,031.2,13.6,0000.0,0011.66,0003.98,0003.22
2023-06-20 08:12:00,SystemResetWarning,0825.9,5.00,000.00,029.7,027.8,000.0,038.3,031.2,14.3,0000.0,0012.59,0003.99,0003.25
2023-06-20 08:13:00,SystemResetWarning,0825.9,5.00,000.00,029.7,027.9,000.0,038.3,031.3,15.3,0000.0,0012.01,0003.94,0003.23
2023-06-20 08:14:00,SystemResetWarning,0825.9,5.00,000.00,029.8,028.0,000.0,038.3,031.3,16.3,0000.0,0011.93,0003.97,0003.24
2023-06-20 08:15:00,SystemResetWarning,0825.9,5.01,000.00,029.8,028.1,000.0,038.3,031.3,14.5,0000.0,0011.29,0003.99,0003.25
2023-06-20 08:16:00,SystemResetWarning,0825.9,5.00,000.00,029.8,028.2,000.0,038.3,031.3,12.3,0000.0,0011.25,0004.04,0003.27
2023-06-20 08:17:00,SystemResetWarning,0825.9,4.99,000.00,029.8,028.2,000.0,038.3,031.4,12.4,0000.0,0012.25,0003.96,0003.24
2023-06-20 08:18:00,SystemResetWarning,0825.9,5.00,000.00,029.8,028.3,000.0,038.3,031.4,12.9,0000.0,0012.22,0003.92,0003.22
2023-06-20 08:19:00,SystemResetWarning,0825.9,4.99,000.00,029.9,028.3,000.0,038.3,031.4,13.3,0000.0,0012.15,0003.92,0003.21
2023-06-20 08:20:00,SystemResetWarning,0825.9,5.00,000.00,029.9,028.4,000.0,038.4,031.4,13.1,0000.0,0011.52,0003.90,0003.21
2023-06-20 08:21:00,SystemResetWarning,0825.9,5.01,000.00,029.9,028.4,000.0,038.4,031.5,13.4,0000.0,0011.70,0003.87,0003.20
2023-06-20 08:22:00,SystemResetWarning,0825.9,5.00,000.00,029.9,028.5,000.0,038.4,031.5,12.6,0000.0,0011.56,0003.81,0003.16
2023-06-20 08:23:00,SystemResetWarning,0825.9,5.00,000.00,030.0,028.5,000.0,038.4,031.5,13.7,0000.0,0010.46,0003.77,0003.12
2023-06-20 08:24:00,SystemResetWarning,0825.9,5.00,000.00,030.0,028.6,000.0,038.4,031.6,14.1,0000.0,0010.56,0003.77,0003.12
2023-06-20 08:25:00,SystemResetWarning,0826.0,5.00,000.00,030.0,028.6,000.0,038.5,031.6,14.2,0000.0,0010.69,0003.71,0003.12
2023-06-20 08:26:00,SystemResetWarning,0826.0,5.00,000.00,030.0,028.7,000.0,038.5,031.6,14.1,0000.0,0011.18,0003.66,0003.10
2023-06-20 08:27:00,SystemResetWarning,0826.0,4.99,000.00,030.1,028.6,000.0,038.5,031.7,14.5,0000.0,0011.77,0003.60,0003.05
2023-06-20 08:28:00,SystemResetWarning,0825.9,4.98,000.00,030.1,026.8,000.0,038.5,031.7,14.9,0000.0,0011.29,0003.59,0003.04
2023-06-20 08:29:00,SystemResetWarning,0825.9,5.01,000.00,030.1,025.0,000.0,038.4,031.6,15.1,0000.0,0010.81,0003.64,0003.09
2023-06-20 08:30:00,SystemResetWarning,0825.9,5.02,000.00,030.0,025.0,000.0,038.4,031.4,15.3,0000.0,0010.68,0003.66,0003.14
2023-06-20 08:31:00,SystemResetWarning,0825.9,4.99,000.00,029.9,025.4,000.0,038.4,031.2,15.5,0000.0,0010.86,0003.72,0003.16
2023-06-20 08:32:00,SystemResetWarning,0825.9,4.99,000.00,029.8,025.8,000.0,038.4,031.1,14.4,0000.0,0010.50,0003.78,0003.19
2023-06-20 08:33:00,SystemResetWarning,0826.0,5.00,000.00,029.8,026.2,000.0,038.4,031.1,14.1,0000.0,0010.00,0003.84,0003.21
2023-06-20 08:34:00,SystemResetWarning,0826.0,5.01,000.00,029.8,026.6,000.0,038.3,031.1,14.5,0000.0,0010.62,0003.83,0003.20
2023-06-20 08:35:00,SystemResetWarning,0826.0,5.00,000.00,029.8,026.9,000.0,038.3,031.1,15.2,0000.0,0011.00,0003.89,0003.22
2023-06-20 08:36:00,SystemResetWarning,0826.0,5.00,000.00,029.7,027.2,000.0,038.3,031.1,15.7,0000.0,0010.97,0003.90,0003.21
2023-06-20 08:37:00,SystemResetWarning,0826.0,4.99,000.00,029.7,027.4,000.0,038.3,031.2,15.6,0000.0,0010.68,0003.98,0003.23
2023-06-20 08:38:00,SystemResetWarning,0826.0,5.00,000.00,029.7,027.6,000.0,038.3,031.2,13.9,0000.0,0010.62,0004.03,0003.26
2023-06-20 08:39:00,SystemResetWarning,0826.0,5.00,000.00,029.8,027.8,000.0,038.3,031.3,13.3,0000.0,0010.26,0004.09,0003.29
2023-06-20 08:40:00,SystemResetWarning,0826.0,5.00,000.00,029.8,027.9,000.0,038.3,031.3,13.5,0000.0,0011.18,0004.10,0003.27
2023-06-20 08:41:00,SystemResetWarning,0826.0,5.00,000.00,029.8,028.0,000.0,038.3,031.3,13.6,0000.0,0011.10,0004.07,0003.25
2023-06-20 08:42:00,SystemResetWarning,0826.0,5.00,000.00,029.8,028.1,000.0,038.3,031.4,13.8,0000.0,0011.28,0004.05,0003.22
2023-06-20 08:43:00,SystemResetWarning,0826.0,5.00,000.00,029.8,028.2,000.0,038.4,031.4,13.9,0000.0,0011.34,0004.01,0003.19
2023-06-20 08:44:00,SystemResetWarning,0826.0,5.00,000.00,029.9,028.3,000.0,038.4,031.4,14.5,0000.0,0012.08,0003.99,0003.17
2023-06-20 08:45:00,SystemResetWarning,0826.1,5.00,000.00,029.9,028.3,000.0,038.4,031.5,15.0,0000.0,0011.66,0003.99,0003.17
2023-06-20 08:46:00,SystemResetWarning,0826.1,5.00,000.00,029.9,028.4,000.0,038.4,031.5,14.8,0000.0,0011.71,0003.97,0003.18
2023-06-20 08:47:00,SystemResetWarning,0826.2,5.00,000.00,029.9,028.5,000.0,038.4,031.5,15.2,0000.0,0011.71,0003.98,0003.20
2023-06-20 08:48:00,SystemResetWarning,0826.2,5.00,000.00,030.0,028.5,000.0,038.4,031.5,15.2,0000.0,0012.33,0003.94,0003.19
2023-06-20 08:49:00,SystemResetWarning,0826.2,5.01,000.00,030.0,028.6,000.0,038.5,031.6,15.1,0000.0,0012.89,0003.92,0003.19
2023-06-20 08:50:00,SystemResetWarning,0826.2,4.99,000.00,030.0,028.6,000.0,038.5,031.6,15.0,0000.0,0012.40,0003.88,0003.18
2023-06-20 08:51:00,SystemResetWarning,0826.2,5.00,000.00,030.0,028.6,000.0,038.5,031.6,14.9,0000.0,0011.61,0003.90,0003.21
2023-06-20 08:52:00,SystemResetWarning,0826.2,5.00,000.00,030.1,028.6,000.0,038.5,031.7,14.5,0000.0,0011.52,0003.95,0003.25
2023-06-20 08:53:00,SystemResetWarning,0826.3,5.00,000.00,030.1,028.7,000.0,038.5,031.6,13.9,0000.0,0011.14,0003.94,0003.28
2023-06-20 08:54:00,SystemResetWarning,0826.3,5.00,000.00,030.1,028.7,000.0,038.6,031.7,14.3,0000.0,0010.99,0003.93,0003.29
2023-06-20 08:55:00,SystemResetWarning,0826.2,4.99,000.00,030.1,027.4,000.0,038.5,031.6,14.3,0000.0,0010.09,0003.90,0003.29
2023-06-20 08:56:00,SystemResetWarning,0826.2,5.00,000.00,030.1,025.1,000.0,038.5,031.4,14.7,0000.0,0010.01,0003.92,0003.30
2023-06-20 08:57:00,SystemResetWarning,0826.2,5.01,000.00,030.0,024.9,000.0,038.4,031.3,14.8,0000.0,0009.91,0003.96,0003.32
2023-06-20 08:58:00,SystemResetWarning,0826.2,5.01,000.00,029.9,025.2,000.0,038.4,031.1,14.8,0000.0,0010.39,0003.99,0003.33
2023-06-20 08:59:00,SystemResetWarning,0826.2,5.00,000.00,029.8,025.6,000.0,038.4,031.1,14.4,0000.0,0010.12,0004.04,0003.34
